| time (UTC) | temp F | wind direction | speed MPH | gust MPH | rain 1hr in | rain 24hr in | rain mn in | humidity % | barometer mb |
| 20260510153238 | 75 | 292 | 0.0 | 3.0 | 0.00 | 0.01 | 0.01 | 52 | 1013.1 |
| 20260510152734 | 75 | 5 | 0.0 | 0.0 | 0.00 | 0.01 | 0.01 | 53 | 1013.1 |
| 20260510151731 | 74 | 26 | 0.0 | 1.0 | 0.00 | 0.01 | 0.01 | 53 | 1013.1 |
| 20260510151215 | 74 | 355 | 0.0 | 3.0 | 0.00 | 0.01 | 0.01 | 54 | 1013.2 |
| 20260510150147 | 73 | 207 | 0.0 | 8.0 | 0.00 | 0.01 | 0.01 | 54 | 1013.2 |
| 20260510145638 | 73 | 242 | 0.0 | 7.0 | 0.00 | 0.01 | 0.01 | 54 | 1013.1 |
| 20260510144123 | 73 | 209 | 0.0 | 8.0 | 0.00 | 0.01 | 0.01 | 54 | 1013.2 |
| 20260510143611 | 72 | 306 | 0.0 | 10.0 | 0.00 | 0.01 | 0.01 | 54 | 1013.1 |
| 20260510143118 | 72 | 240 | 0.0 | 10.0 | 0.00 | 0.01 | 0.01 | 55 | 1013.1 |
| 20260510142622 | 72 | 289 | 0.0 | 0.0 | 0.00 | 0.01 | 0.01 | 55 | 1013.0 |
| 20260510142106 | 72 | 269 | 0.0 | 0.0 | 0.00 | 0.01 | 0.01 | 55 | 1013.0 |
| 20260510141607 | 72 | 158 | 0.0 | 8.0 | 0.00 | 0.01 | 0.01 | 54 | 1013.0 |
| 20260510141106 | 71 | 163 | 0.0 | 6.0 | 0.00 | 0.01 | 0.01 | 55 | 1013.0 |
| 20260510140547 | 70 | 336 | 0.0 | 6.0 | 0.00 | 0.01 | 0.01 | 55 | 1012.9 |
| 20260510135548 | 69 | 265 | 0.0 | 5.0 | 0.00 | 0.01 | 0.01 | 55 | 1013.0 |
| 20260510134533 | 68 | 229 | 0.0 | 4.0 | 0.00 | 0.01 | 0.01 | 54 | 1013.0 |
| 20260510133524 | 67 | 236 | 0.0 | 1.0 | 0.00 | 0.01 | 0.01 | 43 | 1013.0 |
| 20260510132505 | 65 | 284 | 0.0 | 7.0 | 0.00 | 0.00 | 0.01 | 3 | 1013.1 |
| 20260510132010 | 62 | 205 | 0.0 | 2.0 | 0.00 | 0.00 | 0.00 | 1 | 1013.1 |
| 20260510131451 | 61 | 304 | 0.0 | 6.0 | 0.00 | 0.00 | 0.00 | 1 | 1013.1 |
| 20260510130436 | 61 | 261 | 0.0 | 0.0 | 0.00 | 0.00 | 0.00 | 1 | 1013.0 |
| 20260510125931 | 60 | 120 | 0.0 | 3.0 | 0.00 | 0.00 | 0.00 | 1 | 1013.0 |
| 20260510124911 | 59 | 233 | 0.0 | 0.0 | 0.00 | 0.00 | 0.00 | 1 | 1012.8 |
| 20260510124400 | 58 | 167 | 0.0 | 0.0 | 0.00 | 0.00 | 0.00 | 1 | 1012.7 |
| 20260510123404 | 58 | 194 | 0.0 | 0.0 | 0.00 | 0.00 | 0.00 | 1 | 1012.9 |
| 20260510122854 | 58 | 268 | 0.0 | 0.0 | 0.00 | 0.00 | 0.00 | 1 | 1013.1 |
| 20260510121348 | 56 | 164 | 0.0 | 0.0 | 0.00 | 0.00 | 0.00 | 1 | 1012.8 |
| 20260510120836 | 56 | 164 | 0.0 | 0.0 | 0.00 | 0.00 | 0.00 | 1 | 1012.9 |
| 20260510120339 | 56 | 164 | 0.0 | 0.0 | 0.00 | 0.00 | 0.00 | 1 | 1012.9 |
| 20260510115834 | 55 | 164 | 0.0 | 0.0 | 0.00 | 0.00 | 0.00 | 1 | 1012.8 |
| 20260510114845 | 54 | 161 | 0.0 | 0.0 | 0.00 | 0.00 | 0.00 | 1 | 1012.7 |
| 20260510114343 | 54 | 161 | 0.0 | 0.0 | 0.00 | 0.00 | 0.00 | 1 | 1012.7 |
| 20260510113826 | 53 | 275 | 0.0 | 0.0 | 0.00 | 0.00 | 0.00 | 1 | 1012.5 |
| 20260510113329 | 53 | 275 | 0.0 | 0.0 | 0.00 | 0.00 | 0.00 | 1 | 1012.5 |
| 20260510112819 | 52 | 275 | 0.0 | 0.0 | 0.00 | 0.00 | 0.00 | 1 | 1012.5 |
| 20260510112306 | 52 | 275 | 0.0 | 0.0 | 0.00 | 0.00 | 0.00 | 1 | 1012.4 |
| 20260510111809 | 52 | 275 | 0.0 | 0.0 | 0.00 | 0.00 | 0.00 | 1 | 1012.4 |
| 20260510111305 | 52 | 275 | 0.0 | 0.0 | 0.00 | 0.00 | 0.00 | 1 | 1012.3 |
| 20260510110753 | 51 | 275 | 0.0 | 0.0 | 0.00 | 0.00 | 0.00 | 1 | 1012.2 |
| 20260510110252 | 51 | 275 | 0.0 | 0.0 | 0.00 | 0.00 | 0.00 | 1 | 1012.1 |
| 20260510105216 | 51 | 275 | 0.0 | 0.0 | 0.00 | 0.00 | 0.00 | 1 | 1012.2 |
| 20260510104703 | 51 | 275 | 0.0 | 0.0 | 0.00 | 0.00 | 0.00 | 1 | 1012.1 |
| 20260510104202 | 51 | 275 | 0.0 | 0.0 | 0.00 | 0.00 | 0.00 | 1 | 1012.0 |
| 20260510103158 | 51 | 275 | 0.0 | 0.0 | 0.00 | 0.00 | 0.00 | 1 | 1012.0 |
| 20260510102700 | 51 | 275 | 0.0 | 0.0 | 0.00 | 0.00 | 0.00 | 1 | 1012.0 |
| 20260510101639 | 51 | 275 | 0.0 | 0.0 | 0.00 | 0.00 | 0.00 | 1 | 1011.9 |
| 20260510100636 | 51 | 275 | 0.0 | 0.0 | 0.00 | 0.00 | 0.00 | 1 | 1011.7 |
| 20260510100123 | 50 | 275 | 0.0 | 0.0 | 0.00 | 0.00 | 0.00 | 1 | 1011.7 |
| 20260510095623 | 50 | 275 | 0.0 | 0.0 | 0.00 | 0.00 | 0.00 | 1 | 1011.6 |
| 20260510095128 | 50 | 275 | 0.0 | 0.0 | 0.00 | 0.00 | 0.00 | 1 | 1011.5 |
| 20260510094130 | 50 | 351 | 0.0 | 0.0 | 0.00 | 0.00 | 0.00 | 1 | 1011.1 |
| 20260510093631 | 50 | 351 | 0.0 | 0.0 | 0.00 | 0.00 | 0.00 | 1 | 1011.0 |
| 20260510093119 | 50 | 351 | 0.0 | 0.0 | 0.00 | 0.00 | 0.00 | 1 | 1011.0 |
| 20260510092622 | 50 | 351 | 0.0 | 0.0 | 0.00 | 0.00 | 0.00 | 1 | 1011.1 |
| 20260510092113 | 51 | 351 | 0.0 | 0.0 | 0.00 | 0.00 | 0.00 | 1 | 1011.0 |
| 20260510091619 | 51 | 351 | 0.0 | 0.0 | 0.00 | 0.00 | 0.00 | 1 | 1011.0 |
| 20260510091103 | 51 | 351 | 0.0 | 0.0 | 0.00 | 0.00 | 0.00 | 1 | 1011.0 |
| 20260510090043 | 51 | 351 | 0.0 | 0.0 | 0.00 | 0.00 | 0.00 | 1 | 1010.9 |
| 20260510085527 | 51 | 351 | 0.0 | 0.0 | 0.00 | 0.00 | 0.00 | 1 | 1011.0 |
| 20260510084518 | 52 | 351 | 0.0 | 0.0 | 0.00 | 0.00 | 0.00 | 1 | 1011.0 |
| 20260510084026 | 51 | 351 | 0.0 | 0.0 | 0.00 | 0.00 | 0.00 | 1 | 1011.0 |
| 20260510083522 | 51 | 351 | 0.0 | 0.0 | 0.00 | 0.00 | 0.00 | 1 | 1011.0 |
| 20260510083012 | 51 | 351 | 0.0 | 0.0 | 0.00 | 0.00 | 0.00 | 1 | 1010.9 |
| 20260510082505 | 51 | 351 | 0.0 | 0.0 | 0.00 | 0.00 | 0.00 | 1 | 1010.9 |
| 20260510082015 | 51 | 351 | 0.0 | 0.0 | 0.00 | 0.00 | 0.00 | 1 | 1010.9 |
| 20260510081500 | 51 | 351 | 0.0 | 0.0 | 0.00 | 0.00 | 0.00 | 1 | 1010.9 |
| 20260510081006 | 51 | 351 | 0.0 | 0.0 | 0.00 | 0.00 | 0.00 | 1 | 1010.9 |
| 20260510080512 | 51 | 351 | 0.0 | 0.0 | 0.00 | 0.00 | 0.00 | 1 | 1010.9 |
| 20260510080014 | 51 | 351 | 0.0 | 0.0 | 0.00 | 0.00 | 0.00 | 1 | 1010.9 |
| 20260510075021 | 51 | 355 | 0.0 | 0.0 | 0.00 | 0.00 | 0.00 | 1 | 1010.9 |
| 20260510074530 | 51 | 355 | 0.0 | 0.0 | 0.00 | 0.00 | 0.00 | 1 | 1010.8 |
| 20260510074029 | 51 | 355 | 0.0 | 0.0 | 0.00 | 0.00 | 0.00 | 1 | 1010.7 |
| 20260510073511 | 51 | 355 | 0.0 | 0.0 | 0.00 | 0.00 | 0.00 | 1 | 1010.5 |
| 20260510072952 | 51 | 355 | 0.0 | 0.0 | 0.00 | 0.00 | 0.00 | 1 | 1010.5 |
| 20260510072448 | 51 | 355 | 0.0 | 0.0 | 0.00 | 0.00 | 0.00 | 1 | 1010.5 |
| 20260510071957 | 51 | 355 | 0.0 | 0.0 | 0.00 | 0.00 | 0.00 | 1 | 1010.5 |
| 20260510071447 | 50 | 355 | 0.0 | 0.0 | 0.00 | 0.00 | 0.00 | 1 | 1010.4 |
| 20260510070938 | 50 | 355 | 0.0 | 0.0 | 0.00 | 0.00 | 0.00 | 1 | 1010.3 |
| 20260510070421 | 50 | 355 | 0.0 | 0.0 | 0.00 | 0.00 | 0.00 | 1 | 1010.4 |
| 20260510065905 | 50 | 355 | 0.0 | 0.0 | 0.00 | 0.00 | 0.00 | 1 | 1010.3 |
| 20260510065355 | 50 | 355 | 0.0 | 0.0 | 0.00 | 0.00 | 0.00 | 1 | 1010.2 |
| 20260510064904 | 50 | 355 | 0.0 | 0.0 | 0.00 | 0.00 | 0.00 | 1 | 1010.1 |
| 20260510063842 | 51 | 355 | 0.0 | 0.0 | 0.00 | 0.00 | 0.00 | 1 | 1009.9 |
| 20260510062815 | 51 | 355 | 0.0 | 0.0 | 0.00 | 0.00 | 0.00 | 1 | 1009.9 |
| 20260510062325 | 51 | 355 | 0.0 | 0.0 | 0.00 | 0.00 | 0.00 | 1 | 1009.9 |
| 20260510061819 | 51 | 355 | 0.0 | 0.0 | 0.00 | 0.00 | 0.00 | 1 | 1009.9 |
| 20260510061306 | 51 | 355 | 0.0 | 0.0 | 0.00 | 0.00 | 0.00 | 1 | 1010.0 |
| 20260510060759 | 51 | 355 | 0.0 | 0.0 | 0.00 | 0.00 | 0.00 | 1 | 1009.9 |
| 20260510060306 | 51 | 355 | 0.0 | 0.0 | 0.00 | 0.00 | 0.00 | 1 | 1009.9 |
| 20260510055306 | 51 | 355 | 0.0 | 0.0 | 0.00 | 0.00 | 0.00 | 1 | 1009.8 |
| 20260510054807 | 51 | 355 | 0.0 | 0.0 | 0.00 | 0.00 | 0.00 | 1 | 1009.9 |
| 20260510054303 | 51 | 355 | 0.0 | 0.0 | 0.00 | 0.00 | 0.00 | 1 | 1010.0 |
| 20260510053800 | 51 | 355 | 0.0 | 0.0 | 0.00 | 0.00 | 0.00 | 1 | 1010.0 |
| 20260510053250 | 51 | 355 | 0.0 | 0.0 | 0.00 | 0.00 | 0.00 | 1 | 1010.1 |
| 20260510052738 | 51 | 355 | 0.0 | 0.0 | 0.00 | 0.00 | 0.00 | 1 | 1010.0 |
| 20260510052243 | 51 | 355 | 0.0 | 0.0 | 0.00 | 0.00 | 0.00 | 1 | 1010.0 |
| 20260510051237 | 51 | 355 | 0.0 | 0.0 | 0.00 | 0.00 | 0.00 | 1 | 1010.0 |
| 20260510050720 | 52 | 355 | 0.0 | 0.0 | 0.00 | 0.00 | 0.00 | 1 | 1010.0 |
| 20260510050207 | 52 | 355 | 0.0 | 0.0 | 0.00 | 0.00 | 0.00 | 1 | 1010.1 |
| 20260510045716 | 52 | 355 | 0.0 | 0.0 | 0.00 | 0.00 | 0.00 | 1 | 1010.1 |
| 20260510045159 | 52 | 355 | 0.0 | 0.0 | 0.00 | 0.00 | 0.00 | 1 | 1010.1 |
| 20260510044642 | 52 | 355 | 0.0 | 0.0 | 0.00 | 0.00 | 0.00 | 1 | 1010.2 |
| 20260510044126 | 52 | 355 | 0.0 | 0.0 | 0.00 | 0.00 | 0.00 | 1 | 1010.2 |
| 20260510043619 | 52 | 355 | 0.0 | 0.0 | 0.00 | 0.00 | 0.00 | 1 | 1010.1 |
| 20260510043102 | 52 | 355 | 0.0 | 0.0 | 0.00 | 0.00 | 0.00 | 1 | 1010.2 |
| 20260510042549 | 52 | 355 | 0.0 | 0.0 | 0.00 | 0.00 | 0.00 | 1 | 1010.2 |
| 20260510042048 | 52 | 355 | 0.0 | 0.0 | 0.00 | 0.00 | 0.00 | 1 | 1010.2 |
| 20260510041537 | 53 | 355 | 0.0 | 0.0 | 0.00 | 0.00 | 0.00 | 1 | 1010.2 |
| 20260510041044 | 53 | 355 | 0.0 | 0.0 | 0.00 | 0.00 | 0.00 | 1 | 1010.1 |
| 20260510040530 | 53 | 355 | 0.0 | 0.0 | 0.00 | 0.00 | 0.00 | 1 | 1010.2 |
| 20260510040022 | 53 | 355 | 0.0 | 0.0 | 0.00 | 0.00 | 0.00 | 1 | 1010.1 |
| 20260510035520 | 53 | 355 | 0.0 | 0.0 | 0.00 | 0.00 | 0.00 | 1 | 1010.2 |
| 20260510035009 | 53 | 355 | 0.0 | 0.0 | 0.00 | 0.00 | 0.00 | 1 | 1010.1 |
| 20260510034022 | 54 | 355 | 0.0 | 0.0 | 0.00 | 0.00 | 0.00 | 1 | 1010.2 |
| 20260510033507 | 54 | 355 | 0.0 | 0.0 | 0.00 | 0.00 | 0.00 | 1 | 1010.2 |
| 20260510033016 | 54 | 355 | 0.0 | 0.0 | 0.00 | 0.00 | 0.00 | 1 | 1010.2 |
| 20260510032520 | 54 | 355 | 0.0 | 0.0 | 0.00 | 0.00 | 0.00 | 1 | 1010.2 |
| 20260510032005 | 54 | 355 | 0.0 | 0.0 | 0.00 | 0.00 | 0.00 | 1 | 1010.1 |
| 20260510031449 | 55 | 355 | 0.0 | 0.0 | 0.00 | 0.00 | 0.00 | 1 | 1010.2 |
| 20260510030948 | 55 | 355 | 0.0 | 0.0 | 0.00 | 0.00 | 0.00 | 1 | 1010.1 |
| 20260510030454 | 55 | 355 | 0.0 | 0.0 | 0.00 | 0.00 | 0.00 | 1 | 1010.1 |
| 20260510030002 | 55 | 355 | 0.0 | 0.0 | 0.00 | 0.00 | 0.00 | 1 | 1010.1 |
| 20260510025501 | 56 | 355 | 0.0 | 0.0 | 0.00 | 0.00 | 0.00 | 1 | 1010.0 |
| 20260510025000 | 56 | 355 | 0.0 | 0.0 | 0.00 | 0.00 | 0.00 | 1 | 1010.0 |
| 20260510024452 | 56 | 355 | 0.0 | 0.0 | 0.00 | 0.00 | 0.00 | 1 | 1010.0 |
| 20260510023936 | 56 | 355 | 0.0 | 0.0 | 0.00 | 0.00 | 0.00 | 1 | 1010.0 |
| 20260510023428 | 57 | 355 | 0.0 | 0.0 | 0.00 | 0.00 | 0.00 | 1 | 1009.9 |
| 20260510022417 | 57 | 355 | 0.0 | 0.0 | 0.00 | 0.00 | 0.00 | 9 | 1009.7 |
| 20260510021401 | 58 | 355 | 0.0 | 0.0 | 0.00 | 0.00 | 0.00 | 14 | 1009.7 |
| 20260510020857 | 58 | 355 | 0.0 | 0.0 | 0.00 | 0.00 | 0.00 | 18 | 1009.6 |
| 20260510020344 | 58 | 355 | 0.0 | 0.0 | 0.00 | 0.00 | 0.00 | 20 | 1009.6 |
| 20260510015838 | 58 | 355 | 0.0 | 0.0 | 0.00 | 0.00 | 0.00 | 19 | 1009.6 |
| 20260510015343 | 59 | 355 | 0.0 | 0.0 | 0.00 | 0.00 | 0.00 | 19 | 1009.6 |
| 20260510014319 | 59 | 355 | 0.0 | 0.0 | 0.00 | 0.00 | 0.00 | 18 | 1009.5 |
| 20260510013829 | 60 | 355 | 0.0 | 0.0 | 0.00 | 0.00 | 0.00 | 18 | 1009.5 |
| 20260510013337 | 60 | 355 | 0.0 | 0.0 | 0.00 | 0.00 | 0.00 | 21 | 1009.4 |
| 20260510012822 | 60 | 355 | 0.0 | 0.0 | 0.00 | 0.00 | 0.00 | 23 | 1009.3 |
| 20260510012327 | 60 | 355 | 0.0 | 0.0 | 0.00 | 0.00 | 0.00 | 24 | 1009.2 |
| 20260510011342 | 61 | 355 | 0.0 | 0.0 | 0.00 | 0.00 | 0.00 | 21 | 1009.0 |
| 20260510010845 | 61 | 355 | 0.0 | 0.0 | 0.00 | 0.00 | 0.00 | 22 | 1008.9 |
| 20260510010348 | 61 | 355 | 0.0 | 0.0 | 0.00 | 0.00 | 0.00 | 26 | 1008.8 |
| 20260510005858 | 61 | 355 | 0.0 | 0.0 | 0.00 | 0.00 | 0.00 | 30 | 1008.7 |
| 20260510005359 | 61 | 355 | 0.0 | 0.0 | 0.00 | 0.00 | 0.00 | 35 | 1008.7 |
| 20260510004404 | 62 | 355 | 0.0 | 0.0 | 0.00 | 0.00 | 0.00 | 36 | 1008.6 |
| 20260510003901 | 62 | 355 | 0.0 | 0.0 | 0.00 | 0.00 | 0.00 | 44 | 1008.5 |
| 20260510002847 | 63 | 355 | 0.0 | 0.0 | 0.00 | 0.00 | 0.00 | 53 | 1008.4 |
| 20260510002340 | 63 | 355 | 0.0 | 0.0 | 0.00 | 0.00 | 0.00 | 54 | 1008.5 |
| 20260510001841 | 64 | 355 | 0.0 | 0.0 | 0.00 | 0.00 | 0.00 | 55 | 1008.4 |
| 20260510001342 | 64 | 355 | 0.0 | 0.0 | 0.00 | 0.00 | 0.00 | 56 | 1008.5 |
| 20260510000326 | 65 | 355 | 0.0 | 0.0 | 0.00 | 0.00 | 0.00 | 57 | 1008.5 |
| 20260509235833 | 66 | 355 | 0.0 | 0.0 | 0.00 | 0.00 | 0.00 | 57 | 1008.5 |
| 20260509235320 | 66 | 355 | 0.0 | 0.0 | 0.00 | 0.00 | 0.00 | 58 | 1008.5 |
| 20260509234810 | 67 | 355 | 0.0 | 0.0 | 0.00 | 0.00 | 0.00 | 58 | 1008.4 |
| 20260509234304 | 67 | 355 | 0.0 | 0.0 | 0.00 | 0.00 | 0.00 | 58 | 1008.3 |
| 20260509233809 | 68 | 355 | 0.0 | 0.0 | 0.00 | 0.00 | 0.00 | 58 | 1008.3 |
| 20260509233303 | 68 | 355 | 0.0 | 0.0 | 0.00 | 0.00 | 0.00 | 58 | 1008.4 |
| 20260509232813 | 69 | 355 | 0.0 | 0.0 | 0.00 | 0.00 | 0.00 | 58 | 1008.2 |
| 20260509232255 | 69 | 255 | 0.0 | 0.0 | 0.00 | 0.00 | 0.00 | 57 | 1008.2 |
| 20260509231800 | 70 | 113 | 0.0 | 0.0 | 0.00 | 0.00 | 0.00 | 57 | 1008.2 |
| 20260509230803 | 70 | 113 | 0.0 | 0.0 | 0.00 | 0.00 | 0.00 | 57 | 1008.1 |
| 20260509230257 | 70 | 113 | 0.0 | 0.0 | 0.00 | 0.00 | 0.00 | 57 | 1008.1 |
| 20260509225803 | 70 | 113 | 0.0 | 0.0 | 0.00 | 0.00 | 0.00 | 57 | 1008.2 |
| 20260509224802 | 70 | 113 | 0.0 | 0.0 | 0.00 | 0.00 | 0.00 | 57 | 1008.0 |
| 20260509224308 | 70 | 113 | 0.0 | 0.0 | 0.00 | 0.00 | 0.00 | 57 | 1008.0 |
| 20260509223255 | 70 | 113 | 0.0 | 0.0 | 0.00 | 0.00 | 0.00 | 57 | 1008.1 |
| 20260509222746 | 70 | 113 | 0.0 | 0.0 | 0.00 | 0.00 | 0.00 | 57 | 1008.1 |
| 20260509222238 | 70 | 113 | 0.0 | 0.0 | 0.00 | 0.00 | 0.00 | 57 | 1008.1 |
| 20260509221743 | 70 | 113 | 0.0 | 0.0 | 0.00 | 0.00 | 0.00 | 57 | 1008.0 |
| 20260509220211 | 70 | 141 | 0.0 | 0.0 | 0.00 | 0.00 | 0.00 | 57 | 1008.1 |
| 20260509215700 | 70 | 141 | 0.0 | 0.0 | 0.00 | 0.00 | 0.00 | 57 | 1008.1 |
| 20260509214702 | 70 | 142 | 0.0 | 0.0 | 0.00 | 0.00 | 0.00 | 57 | 1008.2 |
| 20260509214159 | 69 | 92 | 0.0 | 0.0 | 0.00 | 0.00 | 0.00 | 57 | 1008.2 |
| 20260509213657 | 69 | 92 | 0.0 | 0.0 | 0.00 | 0.00 | 0.00 | 57 | 1008.2 |
| 20260509213138 | 69 | 103 | 0.0 | 0.0 | 0.00 | 0.00 | 0.00 | 57 | 1008.2 |
| 20260509212629 | 69 | 103 | 0.0 | 0.0 | 0.00 | 0.00 | 0.00 | 57 | 1008.2 |
| 20260509212123 | 69 | 103 | 0.0 | 0.0 | 0.00 | 0.00 | 0.00 | 57 | 1008.2 |
| 20260509211606 | 69 | 103 | 0.0 | 1.0 | 0.00 | 0.00 | 0.00 | 57 | 1008.3 |
| 20260509211113 | 69 | 84 | 0.0 | 0.0 | 0.00 | 0.00 | 0.00 | 58 | 1008.3 |
| 20260509210622 | 69 | 144 | 0.0 | 0.0 | 0.00 | 0.00 | 0.00 | 58 | 1008.3 |
| 20260509205058 | 69 | 144 | 0.0 | 2.0 | 0.00 | 0.00 | 0.00 | 57 | 1008.2 |
| 20260509204601 | 69 | 147 | 0.0 | 0.0 | 0.00 | 0.00 | 0.00 | 57 | 1008.1 |
| 20260509204056 | 69 | 147 | 0.0 | 0.0 | 0.00 | 0.00 | 0.00 | 57 | 1008.2 |
| 20260509203538 | 69 | 151 | 0.0 | 0.0 | 0.00 | 0.00 | 0.00 | 56 | 1008.2 |
| 20260509202520 | 69 | 182 | 0.0 | 1.0 | 0.00 | 0.00 | 0.00 | 57 | 1008.3 |
| 20260509202002 | 69 | 184 | 0.0 | 0.0 | 0.00 | 0.00 | 0.00 | 57 | 1008.2 |
| 20260509201506 | 69 | 184 | 0.0 | 0.0 | 0.00 | 0.00 | 0.00 | 57 | 1008.2 |
| 20260509201013 | 69 | 184 | 0.0 | 0.0 | 0.00 | 0.00 | 0.00 | 57 | 1008.2 |
| 20260509200517 | 69 | 184 | 0.0 | 0.0 | 0.00 | 0.00 | 0.00 | 57 | 1008.3 |
| 20260509200021 | 68 | 184 | 0.0 | 0.0 | 0.00 | 0.00 | 0.00 | 57 | 1008.2 |
| 20260509195531 | 68 | 184 | 0.0 | 0.0 | 0.00 | 0.00 | 0.00 | 57 | 1008.4 |
| 20260509195029 | 68 | 138 | 0.0 | 0.0 | 0.00 | 0.00 | 0.00 | 57 | 1008.4 |
| 20260509194515 | 68 | 225 | 0.0 | 0.0 | 0.00 | 0.00 | 0.00 | 57 | 1008.6 |
| 20260509193959 | 68 | 38 | 0.0 | 0.0 | 0.00 | 0.00 | 0.00 | 58 | 1008.6 |
| 20260509193000 | 68 | 38 | 0.0 | 0.0 | 0.00 | 0.00 | 0.00 | 57 | 1008.6 |
| 20260509192507 | 68 | 330 | 0.0 | 0.0 | 0.00 | 0.00 | 0.00 | 57 | 1008.7 |
| 20260509191453 | 69 | 329 | 0.0 | 0.0 | 0.00 | 0.00 | 0.00 | 56 | 1008.8 |
| 20260509190441 | 69 | 173 | 0.0 | 1.0 | 0.00 | 0.00 | 0.00 | 56 | 1008.9 |
| 20260509185934 | 68 | 180 | 0.0 | 0.0 | 0.00 | 0.00 | 0.00 | 56 | 1008.9 |
| 20260509185426 | 68 | 237 | 0.0 | 0.0 | 0.00 | 0.00 | 0.00 | 57 | 1008.9 |
| 20260509184932 | 68 | 123 | 0.0 | 0.0 | 0.00 | 0.00 | 0.00 | 57 | 1009.0 |
| 20260509184423 | 67 | 121 | 0.0 | 0.0 | 0.00 | 0.00 | 0.00 | 57 | 1009.0 |
| 20260509183920 | 67 | 119 | 0.0 | 1.0 | 0.00 | 0.00 | 0.00 | 57 | 1009.0 |
| 20260509183427 | 66 | 142 | 0.0 | 2.0 | 0.00 | 0.00 | 0.00 | 58 | 1009.0 |
| 20260509182908 | 66 | 306 | 0.0 | 0.0 | 0.00 | 0.00 | 0.00 | 58 | 1009.1 |
| 20260509182416 | 66 | 304 | 0.0 | 1.0 | 0.00 | 0.00 | 0.00 | 57 | 1009.2 |
| 20260509181905 | 66 | 287 | 0.0 | 0.0 | 0.00 | 0.00 | 0.00 | 57 | 1009.6 |
| 20260509180849 | 66 | 314 | 0.0 | 0.0 | 0.00 | 0.00 | 0.00 | 57 | 1009.8 |
| 20260509180358 | 66 | 266 | 0.0 | 0.0 | 0.00 | 0.00 | 0.00 | 58 | 1009.9 |
| 20260509175337 | 64 | 22 | 0.0 | 0.0 | 0.00 | 0.00 | 0.00 | 58 | 1009.9 |
| 20260509174832 | 64 | 340 | 0.0 | 1.0 | 0.00 | 0.00 | 0.00 | 57 | 1010.2 |
| 20260509173826 | 64 | 106 | 0.0 | 0.0 | 0.00 | 0.00 | 0.00 | 58 | 1010.5 |
| 20260509173332 | 64 | 106 | 0.0 | 0.0 | 0.00 | 0.00 | 0.00 | 57 | 1010.6 |
| 20260509171812 | 64 | 114 | 0.0 | 0.0 | 0.00 | 0.00 | 0.00 | 57 | 1010.4 |
| 20260509171259 | 64 | 105 | 0.0 | 1.0 | 0.00 | 0.00 | 0.00 | 57 | 1010.3 |
| 20260509170804 | 64 | 312 | 0.0 | 0.0 | 0.00 | 0.00 | 0.00 | 58 | 1010.3 |
| 20260509170308 | 64 | 299 | 0.0 | 0.0 | 0.00 | 0.00 | 0.00 | 58 | 1010.2 |
| 20260509165806 | 64 | 266 | 0.0 | 0.0 | 0.00 | 0.00 | 0.00 | 57 | 1010.4 |
| 20260509164739 | 65 | 279 | 0.0 | 0.0 | 0.00 | 0.00 | 0.00 | 56 | 1010.4 |
| 20260509164243 | 65 | 279 | 0.0 | 0.0 | 0.00 | 0.00 | 0.00 | 57 | 1010.3 |
| 20260509163749 | 65 | 279 | 0.0 | 0.0 | 0.00 | 0.00 | 0.00 | 55 | 1010.5 |
| 20260509163253 | 65 | 279 | 0.0 | 1.0 | 0.00 | 0.00 | 0.00 | 56 | 1010.4 |
| 20260509162749 | 65 | 290 | 0.0 | 1.0 | 0.00 | 0.00 | 0.00 | 56 | 1010.4 |
| 20260509162232 | 65 | 345 | 0.0 | 0.0 | 0.00 | 0.00 | 0.00 | 55 | 1010.5 |
| 20260509161722 | 65 | 239 | 0.0 | 3.0 | 0.00 | 0.00 | 0.00 | 56 | 1010.5 |
| 20260509161204 | 65 | 283 | 0.0 | 0.0 | 0.00 | 0.00 | 0.00 | 57 | 1010.5 |
| 20260509160658 | 65 | 283 | 0.0 | 0.0 | 0.00 | 0.00 | 0.00 | 56 | 1010.5 |
| 20260509160158 | 64 | 265 | 0.0 | 0.0 | 0.00 | 0.00 | 0.00 | 56 | 1010.4 |
| 20260509155647 | 64 | 265 | 0.0 | 0.0 | 0.00 | 0.00 | 0.00 | 56 | 1010.5 |
| 20260509155139 | 65 | 246 | 0.0 | 0.0 | 0.00 | 0.00 | 0.00 | 57 | 1010.4 |
| 20260509154643 | 65 | 225 | 0.0 | 0.0 | 0.00 | 0.00 | 0.00 | 56 | 1010.5 |
| 20260509154140 | 65 | 196 | 0.0 | 0.0 | 0.00 | 0.00 | 0.00 | 56 | 1010.5 |